Simultaneous Nadir Overpasses (SNOs) Predictions

Prediction of SNOs between METOP-A and NOAA-19 Satellite Orbit:

Table of predicted SNOs for the next 14.0 days since TLE Epoch: 9/18/2021
Index Date (METOP-A) Time (METOP-A) Lat,Lon (METOP-A) SZA (METOP-A ) Date (NOAA-19) Time (NOAA-19) Lat,Lon (NOAA-19) SZA (NOAA-19 ) Distance(km) Time Diff (sec)
1 09/22/2021 01:10:20 80.52, 164.12 80.19 09/22/2021 01:09:07 80.53, 164.27 80.20 3.05 73
2 09/22/2021 02:01:01 -80.53, -28.43 99.79 09/22/2021 02:00:03 -80.53, -28.41 99.78 0.68 58
3 09/22/2021 02:51:40 80.56, 139.28 80.27 09/22/2021 02:51:06 80.55, 139.20 80.26 1.66 34
4 09/22/2021 03:42:22 -80.54, -53.60 99.74 09/22/2021 03:42:02 -80.55, -53.48 99.73 2.43 20
5 09/22/2021 04:33:01 80.57, 114.11 80.31 09/22/2021 04:33:05 80.57, 114.14 80.31 0.78 4
6 09/22/2021 05:23:43 -80.56, -78.77 99.70 09/22/2021 05:24:02 -80.56, -78.89 99.70 2.34 19
7 09/22/2021 06:14:23 80.56, 88.61 80.32 09/22/2021 06:15:05 80.57, 88.73 80.34 2.44 42



Historial Predications of SNOs between METOP-A and NOAA-19
